EA4BPO Weather Reports


Display with metric or nautical units.
time (UTC)temp
F
wind
direction
speed
MPH
gust
MPH
rain 1hr
in
rain 24hr
in
rain mn
in
humidity
%
barometer
mb
20260510222503 52 220 3.0 7.0 0.00 0.23 0.00 88 1013.4
20260510222024 52 208 3.0 7.0 0.00 0.23 0.00 88 1013.4
20260510221524 52 189 4.0 8.0 0.00 0.23 0.00 89 1013.3
20260510221003 52 188 5.0 10.0 0.00 0.23 0.00 89 1013.2
20260510220503 52 192 5.0 10.0 0.00 0.23 0.00 88 1013.4
20260510220025 52 193 5.0 10.0 0.00 0.23 0.00 89 1013.3
20260510215504 52 195 4.0 8.0 0.00 0.23 0.23 89 1013.4
20260510215003 52 193 5.0 9.0 0.00 0.23 0.23 89 1013.4
20260510214503 52 191 6.0 9.0 0.00 0.23 0.23 90 1013.2
20260510214003 52 187 6.0 9.0 0.00 0.23 0.23 90 1013.1
20260510213503 52 185 6.0 9.0 0.00 0.23 0.23 90 1013.2
20260510213003 52 191 5.0 9.0 0.00 0.23 0.23 90 1013.2
20260510212503 52 197 5.0 10.0 0.00 0.23 0.23 90 1013.2
20260510212004 52 198 6.0 10.0 0.00 0.23 0.23 90 1013.2
20260510211503 52 198 6.0 10.0 0.00 0.24 0.23 90 1013.3
20260510211025 53 196 6.0 10.0 0.00 0.24 0.23 90 1013.3
20260510210503 53 191 6.0 10.0 0.00 0.24 0.23 90 1013.1
20260510210004 53 197 5.0 10.0 0.00 0.24 0.23 90 1013.1
20260510205503 52 201 5.0 10.0 0.00 0.25 0.23 90 1013.2
20260510205024 52 195 6.0 11.0 0.00 0.26 0.23 90 1013.2
20260510204503 52 189 6.0 11.0 0.00 0.27 0.23 90 1013.1
20260510204003 52 185 6.0 11.0 0.00 0.29 0.23 90 1013.0
20260510203504 52 185 7.0 11.0 0.00 0.32 0.23 90 1012.9
20260510203024 52 188 6.0 10.0 0.00 0.32 0.23 90 1013.0
20260510202524 52 191 5.0 11.0 0.00 0.32 0.23 90 1012.8
20260510202024 52 196 6.0 11.0 0.00 0.32 0.23 90 1012.7
20260510201503 53 199 6.0 13.0 0.00 0.32 0.23 89 1012.7
20260510201024 53 197 6.0 13.0 0.00 0.32 0.23 89 1012.7
20260510200503 53 192 7.0 11.0 0.00 0.32 0.23 88 1012.3
20260510200004 53 189 7.0 14.0 0.00 0.32 0.23 88 1012.5
20260510195524 53 186 7.0 14.0 0.00 0.32 0.23 87 1012.5
20260510195003 53 190 7.0 13.0 0.00 0.32 0.23 86 1012.2
20260510194503 53 190 6.0 11.0 0.00 0.32 0.23 85 1012.3
20260510194003 54 187 6.0 11.0 0.00 0.32 0.23 84 1012.7
20260510193524 54 188 7.0 11.0 0.00 0.32 0.23 82 1012.1
20260510193004 54 197 6.0 10.0 0.00 0.32 0.23 81 1012.1
20260510192503 54 200 6.0 13.0 0.00 0.32 0.23 80 1012.2
20260510192003 54 193 6.0 13.0 0.00 0.32 0.23 80 1012.2
20260510191504 54 191 6.0 9.0 0.00 0.32 0.23 80 1012.0
20260510191004 55 196 5.0 11.0 0.00 0.32 0.23 80 1011.8
20260510190503 55 201 5.0 11.0 0.00 0.32 0.23 79 1012.0
20260510190004 55 203 6.0 10.0 0.00 0.32 0.23 78 1011.9
20260510185524 55 197 7.0 13.0 0.00 0.32 0.23 77 1011.5
20260510185003 55 198 7.0 14.0 0.00 0.32 0.23 76 1011.5
20260510184504 55 204 7.0 14.0 0.00 0.32 0.23 76 1011.8
20260510184003 55 193 6.0 13.0 0.00 0.32 0.23 77 1011.5
20260510183503 56 182 8.0 13.0 0.00 0.32 0.23 77 1011.6
20260510183003 56 187 8.0 16.0 0.00 0.32 0.23 77 1011.4
20260510182503 56 196 8.0 17.0 0.00 0.32 0.23 77 1011.4
20260510182003 56 195 8.0 17.0 0.00 0.32 0.23 78 1011.4
20260510181503 56 185 9.0 15.0 0.00 0.32 0.23 77 1011.6
20260510181003 56 186 8.0 15.0 0.00 0.32 0.23 77 1011.7
20260510180524 56 189 7.0 14.0 0.00 0.32 0.23 76 1011.7
20260510180003 57 197 8.0 17.0 0.00 0.32 0.23 74 1011.5
20260510175503 57 209 9.0 17.0 0.00 0.32 0.23 72 1011.7
20260510175003 57 214 9.0 16.0 0.00 0.32 0.23 70 1011.5
20260510174503 57 215 11.0 22.0 0.00 0.32 0.23 66 1011.7
20260510174003 57 209 11.0 22.0 0.00 0.32 0.23 66 1011.6
20260510173503 58 213 9.0 18.0 0.00 0.32 0.23 64 1011.3
20260510173025 58 218 9.0 18.0 0.00 0.32 0.23 64 1011.6
20260510172524 58 215 10.0 18.0 0.00 0.32 0.23 64 1011.5
20260510172003 57 220 11.0 22.0 0.00 0.32 0.23 64 1011.6
20260510171503 57 215 11.0 22.0 0.00 0.32 0.23 63 1011.5
20260510171003 58 220 10.0 19.0 0.00 0.32 0.23 63 1011.4
20260510170503 58 229 10.0 19.0 0.00 0.32 0.23 62 1011.7
20260510170003 58 230 11.0 21.0 0.00 0.32 0.23 62 1011.4
20260510165503 58 223 10.0 21.0 0.00 0.32 0.23 63 1011.7
20260510165003 59 213 9.0 22.0 0.00 0.32 0.23 62 1011.6
20260510164503 58 216 10.0 22.0 0.00 0.32 0.23 63 1011.4
20260510164003 58 219 10.0 18.0 0.00 0.32 0.23 64 1011.5
20260510163503 58 224 9.0 23.0 0.00 0.32 0.23 63 1011.2
20260510163003 58 222 10.0 24.0 0.00 0.33 0.23 65 1011.0
20260510162524 57 219 11.0 24.0 0.00 0.36 0.23 64 1011.4
20260510162003 58 216 10.0 18.0 0.00 0.40 0.23 66 1011.2
20260510161503 58 213 10.0 17.0 0.00 0.40 0.23 65 1011.3
20260510161024 57 215 10.0 17.0 0.00 0.40 0.23 67 1011.3
20260510160524 57 223 7.0 16.0 0.00 0.40 0.23 67 1011.6
20260510160003 57 222 7.0 17.0 0.00 0.40 0.23 71 1011.3
20260510155503 56 213 8.0 17.0 0.00 0.40 0.23 73 1011.5
20260510155003 56 213 8.0 15.0 0.00 0.40 0.23 74 1011.4
20260510154503 56 212 8.0 15.0 0.00 0.40 0.23 74 1011.3
20260510154003 56 208 7.0 13.0 0.00 0.40 0.23 76 1011.3
20260510153503 56 210 7.0 13.0 0.00 0.40 0.23 76 1011.3
20260510153005 56 219 5.0 11.0 0.00 0.40 0.23 76 1011.6
20260510152526 56 226 5.0 10.0 0.00 0.40 0.23 77 1011.5
20260510152005 56 211 5.0 9.0 0.00 0.40 0.23 78 1011.7
20260510151505 56 205 5.0 11.0 0.00 0.40 0.23 78 1011.6
20260510151005 57 207 6.0 13.0 0.00 0.40 0.23 78 1011.5
20260510150505 55 207 6.0 13.0 0.00 0.40 0.23 80 1011.8
20260510150026 55 214 6.0 11.0 0.01 0.40 0.23 80 1011.7
20260510145505 54 218 7.0 15.0 0.01 0.40 0.23 82 1011.8
20260510145005 54 210 6.0 15.0 0.01 0.41 0.23 82 1012.0
20260510144505 54 212 5.0 13.0 0.01 0.41 0.23 81 1011.9
20260510144005 54 232 5.0 13.0 0.01 0.41 0.23 83 1012.1
20260510143505 53 237 6.0 15.0 0.01 0.41 0.23 83 1011.9
20260510143026 53 245 7.0 15.0 0.01 0.41 0.23 83 1012.2
20260510142505 53 258 7.0 13.0 0.01 0.41 0.23 83 1012.2
20260510142005 53 247 6.0 13.0 0.01 0.41 0.23 84 1012.1
20260510141505 53 236 6.0 11.0 0.01 0.41 0.23 86 1011.9
20260510141005 52 242 6.0 11.0 0.01 0.41 0.23 87 1012.1
20260510140505 53 245 7.0 15.0 0.01 0.41 0.23 88 1012.1
20260510140005 53 245 7.0 15.0 0.00 0.40 0.22 87 1012.1
20260510135505 54 239 6.0 13.0 0.00 0.40 0.22 83 1011.9
20260510135005 54 214 9.0 23.0 0.00 0.40 0.22 79 1011.9
20260510134505 54 211 8.0 23.0 0.00 0.40 0.22 78 1012.0
20260510134005 55 227 8.0 18.0 0.00 0.40 0.22 77 1011.9
20260510133505 55 225 9.0 18.0 0.00 0.40 0.22 77 1011.8
20260510133005 55 214 9.0 17.0 0.00 0.40 0.22 76 1011.9
20260510132526 55 207 10.0 18.0 0.00 0.40 0.22 77 1011.7
20260510132005 55 211 9.0 18.0 0.00 0.40 0.22 77 1011.6
20260510131505 55 220 8.0 14.0 0.00 0.40 0.22 79 1011.7
20260510131004 55 227 7.0 13.0 0.00 0.40 0.22 78 1011.7
20260510130505 55 221 7.0 15.0 0.00 0.40 0.22 79 1011.8
20260510130005 54 204 7.0 15.0 0.00 0.40 0.22 80 1011.7
20260510125505 54 202 8.0 17.0 0.00 0.40 0.22 80 1011.7
20260510125005 53 210 8.0 17.0 0.00 0.42 0.22 81 1011.8
20260510124505 53 209 7.0 13.0 0.00 0.47 0.22 83 1011.8
20260510124026 53 213 7.0 13.0 0.00 0.53 0.22 84 1011.8
20260510123504 53 218 8.0 17.0 0.00 0.58 0.22 84 1011.9
20260510123005 52 215 9.0 17.0 0.01 0.59 0.22 84 1012.0
20260510122505 53 216 9.0 23.0 0.01 0.60 0.22 83 1012.3
20260510122005 53 218 9.0 23.0 0.03 0.60 0.22 82 1012.3
20260510121505 52 212 7.0 16.0 0.03 0.60 0.22 85 1012.3
20260510121005 52 214 6.0 11.0 0.03 0.60 0.22 88 1012.2
20260510120504 52 214 6.0 11.0 0.03 0.60 0.22 90 1012.0
20260510120005 51 216 6.0 13.0 0.03 0.60 0.22 91 1012.0
20260510115526 51 235 7.0 13.0 0.03 0.60 0.22 93 1012.1
20260510115005 51 241 5.0 10.0 0.03 0.60 0.22 94 1012.3
20260510114504 51 228 5.0 11.0 0.03 0.60 0.22 94 1012.1
20260510114005 51 227 5.0 11.0 0.03 0.60 0.22 94 1012.2
20260510113505 51 241 6.0 14.0 0.03 0.60 0.22 93 1012.2
20260510113005 50 248 8.0 14.0 0.03 0.59 0.21 93 1012.2
20260510112505 50 239 10.0 24.0 0.06 0.59 0.21 92 1012.7
20260510112004 50 225 10.0 24.0 0.06 0.57 0.19 92 1012.6
20260510111505 51 219 9.0 23.0 0.08 0.57 0.19 92 1012.3
20260510111026 50 217 7.0 15.0 0.08 0.57 0.19 94 1012.2
20260510110505 51 227 6.0 13.0 0.08 0.57 0.19 94 1012.1
20260510110005 50 240 7.0 13.0 0.08 0.57 0.19 94 1012.0
20260510105505 50 247 8.0 15.0 0.08 0.57 0.19 94 1012.1
20260510105004 49 255 9.0 17.0 0.08 0.57 0.19 93 1011.9
20260510104505 49 248 9.0 17.0 0.08 0.57 0.19 93 1011.9
20260510104005 49 240 10.0 21.0 0.08 0.57 0.19 92 1012.1
20260510103504 49 249 12.0 25.0 0.08 0.57 0.19 91 1011.9
20260510103005 51 228 12.0 25.0 0.07 0.57 0.18 91 1011.9
20260510102505 54 194 10.0 22.0 0.04 0.54 0.15 90 1011.6
20260510102005 55 190 9.0 17.0 0.02 0.52 0.13 88 1011.1
20260510101504 56 189 9.0 23.0 0.00 0.50 0.11 86 1010.8
20260510101026 55 175 11.0 23.0 0.00 0.50 0.11 86 1011.0
20260510100505 55 175 11.0 23.0 0.00 0.50 0.11 86 1011.1
20260510100005 55 181 10.0 21.0 0.00 0.50 0.11 87 1011.1
20260510095505 55 177 9.0 21.0 0.00 0.50 0.11 88 1011.2
20260510095005 55 185 9.0 17.0 0.00 0.50 0.11 87 1011.2
20260510094504 55 188 9.0 16.0 0.00 0.50 0.11 87 1011.3
20260510094005 54 180 8.0 15.0 0.00 0.50 0.11 86 1011.3
20260510093504 54 182 8.0 18.0 0.00 0.50 0.11 88 1011.7
20260510093004 54 184 8.0 18.0 0.00 0.50 0.11 89 1011.5
20260510092505 54 188 7.0 17.0 0.00 0.50 0.11 89 1011.5
20260510092004 53 192 8.0 17.0 0.01 0.50 0.11 89 1011.6
20260510091505 53 187 9.0 17.0 0.01 0.50 0.11 90 1011.6
20260510091026 53 184 8.0 15.0 0.01 0.50 0.11 93 1011.6
20260510090525 53 184 7.0 14.0 0.01 0.50 0.11 95 1011.6
20260510090004 53 177 8.0 16.0 0.01 0.50 0.11 96 1011.6
20260510085504 52 175 7.0 16.0 0.02 0.50 0.11 96 1011.8
20260510085004 52 179 6.0 11.0 0.02 0.50 0.11 97 1011.9
20260510084505 52 175 6.0 13.0 0.03 0.50 0.11 97 1011.7
20260510084004 52 170 6.0 13.0 0.03 0.50 0.11 97 1011.9
20260510083504 52 183 6.0 11.0 0.03 0.50 0.11 97 1011.9
20260510083004 52 190 5.0 11.0 0.03 0.50 0.11 97 1012.0
20260510082505 52 177 6.0 11.0 0.03 0.50 0.11 97 1012.0
20260510082004 52 172 6.0 11.0 0.02 0.49 0.10 97 1012.2
20260510081504 52 181 6.0 13.0 0.02 0.49 0.10 97 1012.0
20260510081005 51 179 6.0 13.0 0.02 0.49 0.10 96 1011.9
20260510080505 52 175 5.0 9.0 0.02 0.49 0.10 96 1011.9
20260510080005 51 192 4.0 9.0 0.02 0.49 0.10 96 1012.1
20260510075505 51 204 5.0 10.0 0.01 0.48 0.09 95 1012.0
20260510075004 52 192 7.0 11.0 0.01 0.48 0.09 95 1012.1
20260510074505 52 185 7.0 14.0 0.00 0.47 0.08 94 1012.2
20260510074004 52 190 8.0 15.0 0.00 0.47 0.08 93 1012.3
20260510073504 52 187 7.0 15.0 0.00 0.47 0.08 93 1012.1
20260510073004 52 187 7.0 13.0 0.00 0.47 0.08 92 1012.1
20260510072505 52 195 7.0 13.0 0.00 0.47 0.08 92 1012.2
20260510072004 52 191 7.0 15.0 0.00 0.47 0.08 92 1012.0
20260510071504 52 183 8.0 16.0 0.00 0.47 0.08 92 1012.1
20260510071004 52 180 8.0 16.0 0.00 0.47 0.08 92 1012.0
20260510070525 52 178 8.0 14.0 0.00 0.47 0.08 92 1012.0
20260510070005 51 181 7.0 14.0 0.00 0.47 0.08 93 1012.0
20260510065504 51 179 7.0 15.0 0.00 0.47 0.08 93 1012.0
20260510065004 51 179 6.0 15.0 0.00 0.47 0.08 93 1011.7
20260510064504 51 180 5.0 11.0 0.00 0.47 0.08 94 1012.1
20260510064005 51 181 4.0 9.0 0.00 0.47 0.08 94 1011.8
20260510063504 50 183 3.0 7.0 0.00 0.47 0.08 95 1011.9
20260510063004 50 188 3.0 7.0 0.00 0.47 0.08 95 1011.9
20260510062504 50 193 4.0 8.0 0.00 0.47 0.08 95 1011.8
20260510062004 50 194 5.0 8.0 0.00 0.47 0.08 95 1011.9
20260510061505 50 193 4.0 7.0 0.00 0.47 0.08 96 1011.9
20260510061004 49 184 4.0 9.0 0.00 0.47 0.08 96 1011.8
20260510060504 49 182 5.0 10.0 0.00 0.47 0.08 96 1011.8
20260510060005 49 184 4.0 10.0 0.00 0.47 0.08 96 1011.7
20260510055504 49 182 5.0 8.0 0.00 0.47 0.08 96 1011.6
20260510055004 49 186 5.0 11.0 0.00 0.47 0.08 96 1011.5
20260510054504 49 190 5.0 11.0 0.00 0.47 0.08 97 1011.7
20260510054005 49 183 4.0 10.0 0.00 0.47 0.08 97 1011.6
20260510053525 49 183 4.0 8.0 0.00 0.47 0.08 97 1011.5
20260510053004 49 188 4.0 8.0 0.00 0.47 0.08 97 1011.6
20260510052504 49 187 5.0 8.0 0.00 0.47 0.08 97 1011.6
20260510052004 49 186 4.0 8.0 0.00 0.47 0.08 97 1011.6
20260510051504 49 178 3.0 8.0 0.00 0.47 0.08 97 1011.8
20260510051004 49 164 2.0 6.0 0.00 0.47 0.08 97 1011.6
20260510050504 49 159 2.0 4.0 0.00 0.47 0.08 97 1011.8
20260510050005 49 159 2.0 4.0 0.00 0.47 0.08 98 1011.5
20260510045504 49 153 2.0 3.0 0.00 0.47 0.08 98 1011.6
20260510045004 49 159 2.0 4.0 0.00 0.47 0.08 98 1011.6
20260510044504 49 170 2.0 4.0 0.00 0.47 0.08 98 1011.5
20260510044004 49 167 1.0 4.0 0.00 0.47 0.08 98 1011.6
20260510043504 49 160 1.0 3.0 0.00 0.47 0.08 98 1011.6
20260510043004 49 162 2.0 3.0 0.00 0.47 0.08 98 1011.4
20260510042525 49 163 2.0 4.0 0.00 0.47 0.08 98 1011.5
20260510042025 49 170 3.0 4.0 0.00 0.47 0.08 98 1011.5
20260510041504 49 169 3.0 6.0 0.00 0.47 0.08 98 1011.7
20260510041004 49 160 3.0 6.0 0.00 0.47 0.08 98 1011.7
20260510040504 49 159 3.0 4.0 0.00 0.47 0.08 98 1011.7
20260510040004 49 159 3.0 4.0 0.00 0.47 0.08 98 1011.8
20260510035504 49 161 3.0 4.0 0.00 0.47 0.08 97 1011.7
20260510035004 49 164 3.0 6.0 0.00 0.47 0.08 97 1011.6
20260510034504 49 164 3.0 6.0 0.00 0.47 0.08 97 1011.7
20260510034025 49 166 3.0 6.0 0.00 0.47 0.08 97 1011.7
20260510033504 49 162 3.0 6.0 0.00 0.47 0.08 97 1011.9
20260510033025 49 161 3.0 6.0 0.00 0.47 0.08 97 1011.7
20260510032504 49 161 3.0 6.0 0.00 0.47 0.08 97 1011.8
20260510032004 49 166 3.0 6.0 0.00 0.47 0.08 97 1012.0
20260510031504 49 179 3.0 6.0 0.00 0.47 0.08 97 1012.0
20260510031025 49 186 3.0 6.0 0.00 0.47 0.08 97 1012.0
20260510030504 49 184 3.0 6.0 0.00 0.47 0.08 97 1012.0
20260510030004 49 190 2.0 6.0 0.00 0.47 0.08 97 1012.2
20260510025504 50 189 3.0 6.0 0.00 0.47 0.08 97 1012.0
20260510025004 50 188 3.0 6.0 0.00 0.47 0.08 96 1012.1
20260510024525 50 196 2.0 6.0 0.00 0.47 0.08 96 1012.3
20260510024004 50 191 3.0 6.0 0.00 0.47 0.08 96 1012.3
20260510023504 50 188 3.0 6.0 0.00 0.47 0.08 96 1012.2
20260510023004 50 191 3.0 6.0 0.00 0.47 0.08 96 1012.3
20260510022504 50 192 3.0 6.0 0.00 0.47 0.08 96 1012.1
20260510022004 50 191 2.0 4.0 0.00 0.47 0.08 96 1012.1
20260510021525 50 195 2.0 6.0 0.00 0.47 0.08 96 1012.1
20260510021004 50 209 3.0 6.0 0.00 0.47 0.08 95 1012.3
20260510020504 50 216 3.0 6.0 0.00 0.47 0.08 95 1012.0
20260510020025 50 206 3.0 4.0 0.00 0.47 0.08 95 1012.3
20260510015504 50 197 3.0 6.0 0.00 0.47 0.08 95 1012.3
20260510015004 50 196 3.0 6.0 0.00 0.47 0.08 95 1012.1
20260510014504 50 195 3.0 6.0 0.00 0.47 0.08 95 1012.1
20260510014025 50 198 2.0 6.0 0.00 0.47 0.08 95 1012.1
20260510013525 50 208 2.0 6.0 0.00 0.47 0.08 95 1012.0
20260510013004 50 208 3.0 8.0 0.00 0.47 0.08 95 1012.2
20260510012505 50 211 4.0 8.0 0.00 0.47 0.08 95 1012.5
20260510012004 50 210 3.0 7.0 0.00 0.47 0.08 95 1012.2
20260510011504 50 212 2.0 7.0 0.00 0.47 0.08 95 1012.2
20260510011025 51 215 3.0 6.0 0.00 0.47 0.08 95 1012.6
20260510010504 51 216 4.0 6.0 0.00 0.47 0.08 95 1012.3
20260510010025 51 210 3.0 6.0 0.00 0.47 0.08 95 1012.3
20260510005504 51 198 2.0 4.0 0.00 0.47 0.08 95 1012.2
20260510005004 51 204 2.0 7.0 0.00 0.47 0.08 94 1012.2
20260510004525 50 212 4.0 7.0 0.00 0.47 0.08 94 1012.2
20260510004004 50 221 4.0 7.0 0.00 0.47 0.08 94 1012.5
20260510003504 50 222 4.0 8.0 0.00 0.47 0.08 94 1012.7
20260510003004 50 211 4.0 8.0 0.00 0.47 0.08 95 1012.5
20260510002504 50 208 5.0 10.0 0.01 0.47 0.08 95 1012.5
20260510002004 50 215 6.0 10.0 0.01 0.47 0.08 95 1012.6
20260510001504 50 215 6.0 13.0 0.01 0.47 0.08 95 1012.7
20260510001004 50 208 6.0 13.0 0.01 0.47 0.08 95 1012.3
20260510000504 50 208 6.0 11.0 0.02 0.47 0.08 95 1012.6
20260510000004 50 225 5.0 17.0 0.03 0.47 0.08 95 1012.6
20260509235525 50 229 7.0 17.0 0.05 0.47 0.08 95 1012.6
20260509235004 50 223 7.0 15.0 0.06 0.47 0.08 95 1012.6
20260509234504 50 212 5.0 13.0 0.08 0.47 0.08 96 1012.7
20260509234004 50 209 4.0 8.0 0.08 0.47 0.08 96 1012.5
20260509233504 50 209 3.0 8.0 0.08 0.47 0.08 96 1012.8
20260509233004 50 208 5.0 11.0 0.08 0.47 0.08 96 1012.5
20260509232504 50 208 6.0 11.0 0.07 0.46 0.07 95 1012.8
20260509232004 50 208 5.0 10.0 0.07 0.46 0.07 95 1012.8
20260509231525 50 211 4.0 8.0 0.07 0.46 0.07 95 1012.7
20260509231004 50 222 7.0 17.0 0.07 0.46 0.07 95 1012.7
20260509230504 50 221 7.0 17.0 0.06 0.45 0.06 95 1012.7
20260509230004 51 207 5.0 13.0 0.05 0.44 0.05 95 1013.1
20260509225504 51 202 6.0 13.0 0.03 0.42 0.03 94 1012.8
20260509225025 51 198 5.0 10.0 0.02 0.41 0.02 94 1012.8
20260509224504 51 217 3.0 9.0 0.00 0.39 0.00 94 1012.5
20260509224005 51 230 3.0 8.0 0.00 0.39 0.00 94 1012.3
20260509223504 51 229 2.0 6.0 0.00 0.39 0.00 94 1012.2
20260509223004 51 238 2.0 6.0 0.00 0.39 0.00 95 1012.5